TimePDT,TemperatureF,Dew PointF,Humidity,Sea Level PressureIn,VisibilityMPH,Wind Direction,Wind SpeedMPH,Gust SpeedMPH,PrecipitationIn,Events,Conditions,WindDirDegrees,DateUTC
12:56 AM,52.0,42.1,69,30.01,10.0,WSW,11.5,-,N/A,,Clear,250,2013-03-28 07:56:00
1:56 AM,51.1,42.1,71,30.00,10.0,West,9.2,-,N/A,,Clear,270,2013-03-28 08:56:00
2:56 AM,50.0,41.0,71,30.00,10.0,West,8.1,-,N/A,,Clear,260,2013-03-28 09:56:00
3:56 AM,51.1,41.0,68,29.99,10.0,West,10.4,-,N/A,,Clear,270,2013-03-28 10:56:00
4:56 AM,52.0,41.0,66,29.98,10.0,West,11.5,-,N/A,,Clear,270,2013-03-28 11:56:00
5:56 AM,52.0,41.0,66,29.99,10.0,West,9.2,-,N/A,,Clear,280,2013-03-28 12:56:00
6:56 AM,51.1,39.9,66,30.01,10.0,West,6.9,-,N/A,,Clear,270,2013-03-28 13:56:00
7:56 AM,54.0,41.0,62,30.03,10.0,North,4.6,-,N/A,,Clear,360,2013-03-28 14:56:00
8:56 AM,60.1,41.0,49,30.04,10.0,Calm,Calm,-,N/A,,Clear,0,2013-03-28 15:56:00
9:56 AM,63.0,39.9,43,30.04,10.0,Calm,Calm,-,N/A,,Clear,0,2013-03-28 16:56:00
10:56 AM,68.0,37.9,33,30.04,10.0,Variable,3.5,-,N/A,,Clear,0,2013-03-28 17:56:00
11:56 AM,73.0,30.0,20,30.02,10.0,West,13.8,23.0,N/A,,Clear,270,2013-03-28 18:56:00
12:56 PM,73.9,36.0,25,30.01,10.0,SSW,8.1,-,N/A,,Clear,210,2013-03-28 19:56:00
1:56 PM,77.0,35.1,22,29.99,10.0,SW,12.7,20.7,N/A,,Clear,230,2013-03-28 20:56:00
2:56 PM,77.0,36.0,23,29.98,10.0,WSW,10.4,24.2,N/A,,Clear,240,2013-03-28 21:56:00
3:56 PM,75.9,37.9,25,29.98,10.0,WSW,13.8,24.2,N/A,,Clear,250,2013-03-28 22:56:00
4:56 PM,75.0,36.0,24,30.00,10.0,WSW,20.7,26.5,N/A,,Scattered Clouds,250,2013-03-28 23:56:00
5:56 PM,70.0,35.1,28,30.03,10.0,West,20.7,31.1,N/A,,Partly Cloudy,270,2013-03-29 00:56:00
6:56 PM,66.0,35.1,32,30.04,10.0,WSW,10.4,-,N/A,,Clear,250,2013-03-29 01:56:00
7:56 PM,64.0,34.0,33,30.04,10.0,SSW,6.9,-,N/A,,Clear,210,2013-03-29 02:56:00
8:56 PM,61.0,32.0,34,30.02,10.0,SSE,4.6,-,N/A,,Clear,160,2013-03-29 03:56:00
9:56 PM,55.9,30.9,39,30.05,10.0,WNW,10.4,-,N/A,,Clear,300,2013-03-29 04:56:00
10:56 PM,55.0,35.1,47,30.06,10.0,West,4.6,-,N/A,,Clear,270,2013-03-29 05:56:00
11:56 PM,54.0,37.9,55,30.07,10.0,West,8.1,-,N/A,,Clear,270,2013-03-29 06:56:00